Weather History for KABI - October, 2012

Change the Weather History Date:

Sunday, October 7, 2012

  Actual Average Record
Temperature  
Mean Temperature 46 °F 68 °F  
Max Temperature 49 °F 80 °F 99 °F (1979)
Min Temperature 42 °F 57 °F 39 °F (2000)
Degree Days  
Heating Degree Days 19 2  
Month to date heating degree days 33 10  
Since 1 July heating degree days 39 21  
Cooling Degree Days 0 5  
Month to date cooling degree days 16 41  
Year to date cooling degree days 2889 2312  
Moisture  
Dew Point 32 °F    
Average Humidity 58    
Maximum Humidity 65    
Minimum Humidity 50    
Precipitation  
Precipitation 0.00 in 0.09 in 1.57 in (1887)
Month to date precipitation 0.00 0.61  
Year to date precipitation 22.14 19.81  
Sea Level Pressure  
Sea Level Pressure 30.26 in    
Wind  
Wind Speed 7 mph (NNE)    
Max Wind Speed 15 mph    
Max Gust Speed 25 mph    
Visibility 10 miles    
Events      
T = Trace of Precipitation, MM = Missing Value Source: NWS Daily Summary

Daily Weather History Graph

Daily Weather History Graph

Search for Another Location

Airport or City:

Trip Planner

Search our weather history database for the weather conditions in past years. The results will help you decide how hot, cold, wet, or windy it might be!

Date:

Astronomy

Oct. 07, 2012 Rise Set
Actual Time 7:37 AM CDT 7:15 PM CDT
Civil Twilight 7:12 AM CDT 7:39 PM CDT
Nautical Twilight 6:44 AM CDT 8:08 PM CDT
Astronomical Twilight 6:15 AM CDT 8:36 PM CDT
Moon No Moon Rise 2:02 PM CDT (10/7)
Length of Visible Light 12h 27m
Length of Day
11h 37m
Waning Gibbous, 56% of the Moon is Illuminated
Oct 7
Waning Gibbous
Oct 8
Last Quarter
Oct 15
New
Oct 21
First Quarter
Oct 29
Full

Hourly Weather History & Observations

Time (CDT) Temp. Windchill Dew Point Humidity Pressure Visibility Wind Dir Wind Speed Gust Speed Precip Events Conditions
12:52 AM 45.0 °F 39.7 °F 34.0 °F 65% 30.26 in 10.0 mi NE 10.4 mph 19.6 mph N/A   Overcast
1:28 AM 44.6 °F 38.4 °F 33.8 °F 66% 30.27 in 10.0 mi NNE 12.7 mph 19.6 mph N/A   Overcast
1:52 AM 45.0 °F 39.7 °F 33.1 °F 63% 30.27 in 10.0 mi NE 10.4 mph - N/A   Overcast
2:52 AM 46.0 °F 42.5 °F 33.1 °F 61% 30.27 in 10.0 mi NNE 6.9 mph - N/A   Overcast
3:52 AM 46.0 °F 40.2 °F 30.9 °F 56% 30.27 in 10.0 mi NNE 12.7 mph - N/A   Overcast
4:52 AM 45.0 °F 39.3 °F 30.9 °F 58% 30.26 in 10.0 mi NNE 11.5 mph 18.4 mph N/A   Overcast
5:52 AM 45.0 °F 40.1 °F 32.0 °F 60% 30.27 in 10.0 mi NNE 9.2 mph - N/A   Overcast
6:52 AM 45.0 °F 40.1 °F 33.1 °F 63% 30.29 in 10.0 mi NNE 9.2 mph - N/A   Overcast
7:52 AM 45.0 °F 40.1 °F 33.1 °F 63% 30.28 in 10.0 mi ENE 9.2 mph - N/A   Overcast
8:52 AM 46.0 °F 41.4 °F 34.0 °F 63% 30.30 in 10.0 mi North 9.2 mph - N/A   Overcast
9:52 AM 45.0 °F 41.8 °F 32.0 °F 60% 30.31 in 10.0 mi NE 5.8 mph - N/A   Overcast
10:52 AM 46.0 °F 41.4 °F 30.9 °F 56% 30.31 in 10.0 mi NE 9.2 mph - N/A   Overcast
11:52 AM 46.9 °F - 32.0 °F 56% 30.30 in 10.0 mi NNE 11.5 mph - N/A   Overcast
12:52 PM 48.0 °F - 32.0 °F 54% 30.27 in 10.0 mi NNE 10.4 mph - N/A   Overcast
1:52 PM 48.9 °F - 32.0 °F 52% 30.25 in 10.0 mi ENE 8.1 mph - N/A   Overcast
2:52 PM 48.0 °F - 32.0 °F 54% 30.22 in 10.0 mi North 6.9 mph - N/A   Overcast
3:52 PM 48.0 °F - 32.0 °F 54% 30.22 in 10.0 mi NNE 9.2 mph - N/A   Overcast
4:52 PM 48.0 °F - 30.9 °F 52% 30.21 in 10.0 mi North 9.2 mph - N/A   Overcast
5:52 PM 46.9 °F - 30.9 °F 54% 30.22 in 10.0 mi NE 6.9 mph - N/A   Overcast
6:52 PM 46.9 °F - 30.9 °F 54% 30.23 in 10.0 mi NNE 5.8 mph - N/A   Overcast
7:52 PM 46.9 °F - 30.9 °F 54% 30.22 in 10.0 mi NE 3.5 mph - N/A   Overcast
8:52 PM 46.9 °F - 32.0 °F 56% 30.24 in 10.0 mi NNE 4.6 mph - N/A   Overcast
9:52 PM 46.0 °F - 32.0 °F 58% 30.25 in 10.0 mi Calm Calm - N/A   Overcast
10:52 PM 46.0 °F - 32.0 °F 58% 30.25 in 10.0 mi Calm Calm - N/A   Mostly Cloudy
11:52 PM 45.0 °F - 30.9 °F 58% 30.24 in 10.0 mi Calm Calm - N/A   Clear